Regional Weather Roundup
Issued by NWS Albany, NY

Home | Current Version | Previous Version | Text Only | Print | Product List | Glossary On
Versions: 1 2 3 4 5 6 7 8 9 10 11 12 13 14 15 16 17 18 19 20 21 22 23 24 25 26 27 28 29 30 31 32 33 34 35 36 37 38 39 40 41 42 43 44 45 46 47 48 49 50
436
ASUS41 KALY 201410
RWRALY

NEW YORK STATE HOURLY WEATHER ROUNDUP
NATIONAL WEATHER SERVICE ALBANY NY
1000 AM EDT FRI APR 20 2018

NOTE: "FAIR" INDICATES FEW OR NO CLOUDS BELOW 12,000 FEET WITH NO
SIGNIFICANT WEATHER AND/OR NO OBSTRUCTIONS TO VISIBILITY.

NYZ032-033-038>043-046>054-057>066-NYZ062>081-082-084-201500-
EAST


CITY           SKY/WX    TMP DP  RH WIND       PRES   REMARKS
ALBANY         PTSUNNY   37  21  52 W17       30.16R WCI  27
GLENS FALLS    CLOUDY    39  24  55 NW10      30.13R WCI  32
POUGHKEEPSIE   PTSUNNY   40  22  48 NW17      30.15R WCI  31
NEWBURGH       MOSUNNY   41  25  52 NW14      30.16R
MONTGOMERY     FAIR      39  24  55 NW14G25   30.15R WCI  31
WHITE PLAINS   FAIR      41  22  46 NW21G28   30.11R
ISLIP          FAIR      43  23  45 N20G30    30.11R
NEW YORK CITY  FAIR      42  24  49 NW18G26   30.15R
CENTRAL PARK   FAIR      41  22  46 NW8G28    30.17R
$$

NYZ005>009-017-018-044>046-055-056-201500-
CENTRAL


CITY           SKY/WX    TMP DP  RH WIND       PRES   REMARKS
FULTON         CLOUDY    32  25  75 W9        30.28R WCI  24
SYRACUSE       CLOUDY    32  25  75 W13       30.27R WCI  22
ROME           CLOUDY    33  23  66 NW17      30.25R WCI  22
ELMIRA         CLOUDY    33  21  61 N12       30.28R WCI  24
BINGHAMTON     CLOUDY    28  18  66 N17G24    30.19R WCI  16
MONTICELLO       N/A     33  22  63 NW20G30   30.16  WCI  21
$$

NYZ026>034-041>043-087-201500-
NORTH


CITY           SKY/WX    TMP DP  RH WIND       PRES   REMARKS
WATERTOWN      CLOUDY    33  23  66 NW12      30.27R WCI  24
FORT DRUM      NOT AVBL
OGDENSBURG     PTSUNNY   34  26  71 NW12      30.23R WCI  26
MASSENA        CLOUDY    34  26  72 W9        30.21R WCI  27
SARANAC LAKE   CLOUDY    26  22  84 VRB5      30.10R WCI  20
PLATTSBURGH    LGT SNOW  35  25  66 NW10      30.12R WCI  27
$$

NYZ001>004-010>016-019>021-085-201500-
WEST


CITY           SKY/WX    TMP DP  RH WIND       PRES   REMARKS
NIAGARA FALLS  CLOUDY    36  21  54 N10       30.36R WCI  28
BUFFALO        PTSUNNY   33  22  63 NW13      30.35R WCI  24
DUNKIRK        FAIR      35  24  64 W12       30.39R WCI  27
JAMESTOWN      FAIR      33  19  56 NW13      30.32R WCI  24
WELLSVILLE     CLOUDY    29  20  69 NW15      30.26R WCI  18
ROCHESTER      PTSUNNY   36  23  59 NW14      30.31R WCI  27
PENN YAN       CLOUDY    31  19  61 NW10G23   30.28R WCI  22
$$

             KEY
       WCI = WIND CHILL INDEX
       VSB = VISIBILITY
       HX  = HEAT INDEX
$$




USA.gov is the U.S. government's official web portal to all federal, state and local government web resources and services.